Tillbaka till svenska Fidonet
English   Information   Debug  
FILM   0/18
FNEWS_PUBLISH   5034
FN_SYSOP   42247
FN_SYSOP_OLD1   71952
FTP_FIDO   0/2
FTSC_PUBLIC   0/13979
FUNNY   0/4886
GENEALOGY.EUR   0/71
GET_INFO   105
GOLDED   0/408
HAM   2181/16786
HOLYSMOKE   0/6791
HOT_SITES   0/1
HTMLEDIT   0/71
HUB203   466
HUB_100   264
HUB_400   39
HUMOR   0/29
IC   0/2851
INTERNET   0/424
INTERUSER   0/3
IP_CONNECT   719
JAMNNTPD   0/233
JAMTLAND   0/47
KATTY_KORNER   0/41
LAN   0/16
LINUX-USER   0/19
LINUXHELP   0/1155
LINUX   0/22427
LINUX_BBS   0/957
mail   18.68
mail_fore_ok   249
MENSA   0/341
MODERATOR   0/102
MONTE   0/992
MOSCOW_OKLAHOMA   0/1245
MUFFIN   0/783
MUSIC   0/321
N203_STAT   938
N203_SYSCHAT   313
NET203   321
NET204   69
NET_DEV   0/10
NORD.ADMIN   0/101
NORD.CHAT   0/2572
NORD.FIDONET   189
NORD.HARDWARE   0/28
NORD.KULTUR   0/114
NORD.PROG   0/32
NORD.SOFTWARE   0/88
NORD.TEKNIK   0/58
NORD   0/453
OCCULT_CHAT   0/93
OS2BBS   0/787
OS2DOSBBS   0/580
OS2HW   0/42
OS2INET   0/37
OS2LAN   0/134
OS2PROG   0/36
OS2REXX   0/113
OS2USER-L   207
OS2   0/4835
OSDEBATE   0/18996
PASCAL   0/490
PERL   0/457
PHP   0/45
POINTS   0/405
POLITICS   0/29554
POL_INC   0/14731
PSION   103
R20_ADMIN   1133
R20_AMATORRADIO   0/2
R20_BEST_OF_FIDONET   16
R20_CHAT   0/897
R20_DEPP   0/3
R20_DEV   400
R20_ECHO2   1933
R20_ECHOPRES   0/35
R20_ESTAT   0/719
R20_FIDONETPROG...
...RAM.MYPOINT
  0/2
R20_FIDONETPROGRAM   0/22
R20_FIDONET   0/248
R20_FILEFIND   0/24
R20_FILEFOUND   0/22
R20_HIFI   0/3
R20_INFO2   3827
R20_INTERNET   0/12940
R20_INTRESSE   0/60
R20_INTR_KOM   0/99
R20_KANDIDAT.CHAT   42
R20_KANDIDAT   28
R20_KOM_DEV   112
R20_KONTROLL   0/13360
R20_KORSET   0/18
R20_LOKALTRAFIK   0/24
R20_MODERATOR   0/1852
R20_NC   76
R20_NET200   245
R20_NETWORK.OTH...
...ERNETS
  0/13
R20_OPERATIVSYS...
...TEM.LINUX
  0/44
R20_PROGRAMVAROR   0/1
R20_REC2NEC   534
R20_SFOSM   0/341
R20_SF   0/108
R20_SPRAK.ENGLISH   0/1
R20_SQUISH   107
R20_TEST   2
R20_WORST_OF_FIDONET   20
RAR   0/9
RA_MULTI   106
RA_UTIL   0/162
REGCON.EUR   0/2072
REGCON   0/13
SCIENCE   0/1206
SF   0/239
SHAREWARE_SUPPORT   0/5146
SHAREWRE   0/14
SIMPSONS   0/169
STATS_OLD1   0/2539.065
STATS_OLD2   0/2530
STATS_OLD3   1534/2395.095
STATS_OLD4   0/1692.25
SURVIVOR   0/495
SYSOPS_CORNER   0/3
SYSOP   0/84
TAGLINES   0/112
TEAMOS2   0/4530
TECH   0/2617
TEST.444   0/105
TRAPDOOR   0/19
TREK   0/755
TUB   0/290
UFO   0/40
UNIX   0/1316
USA_EURLINK   0/102
USR_MODEMS   0/1
VATICAN   0/2740
VIETNAM_VETS   0/14
VIRUS   0/378
VIRUS_INFO   0/201
VISUAL_BASIC   0/473
WHITEHOUSE   0/5187
WIN2000   0/101
WIN32   0/30
WIN95   0/4291
WIN95_OLD1   0/70272
WINDOWS   479/1517
WWB_SYSOP   0/419
WWB_TECH   0/810
ZCC-PUBLIC   0/1
ZEC   4

 
4DOS   0/134
ABORTION   0/7
ALASKA_CHAT   0/506
ALLFIX_FILE   0/1313
ALLFIX_FILE_OLD1   0/7997
ALT_DOS   0/152
AMATEUR_RADIO   0/1039
AMIGASALE   0/14
AMIGA   0/331
AMIGA_INT   0/1
AMIGA_PROG   0/20
AMIGA_SYSOP   0/26
ANIME   0/15
ARGUS   0/924
ASCII_ART   0/340
ASIAN_LINK   0/651
ASTRONOMY   0/417
AUDIO   0/92
AUTOMOBILE_RACING   0/105
BABYLON5   0/17862
BAG   135
BATPOWER   0/361
BBBS.ENGLISH   0/382
BBSLAW   0/109
BBS_ADS   0/5290
BBS_INTERNET   0/507
BIBLE   0/3563
BINKD   0/1119
BINKLEY   0/215
BLUEWAVE   0/2173
CABLE_MODEMS   0/25
CBM   0/46
CDRECORD   0/66
CDROM   0/20
CLASSIC_COMPUTER   0/378
COMICS   0/15
CONSPRCY   0/899
COOKING   42382
COOKING_OLD1   0/24719
COOKING_OLD2   0/40862
COOKING_OLD3   0/37489
COOKING_OLD4   26571/35496
COOKING_OLD5   9370
C_ECHO   0/189
C_PLUSPLUS   0/31
DIRTY_DOZEN   0/201
DOORGAMES   1426/2388
DOS_INTERNET   0/196
duplikat   6102
ECHOLIST   11733/18295
EC_SUPPORT   0/318
ELECTRONICS   0/359
ELEKTRONIK.GER   1534
ENET.LINGUISTIC   0/13
ENET.POLITICS   0/4
ENET.SOFT   0/11701
ENET.SYSOP   34388
ENET.TALKS   0/32
ENGLISH_TUTOR   0/2000
EVOLUTION   0/1335
FDECHO   0/217
FDN_ANNOUNCE   4848/7068
FIDONEWS   25218
FIDONEWS_OLD1   0/49742
FIDONEWS_OLD2   0/35949
FIDONEWS_OLD3   0/30874
FIDONEWS_OLD4   0/37224
FIDO_SYSOP   12977
FIDO_UTIL   0/180
FILEFIND   0/209
FILEGATE   0/212
Möte HAM, 16786 texter
 lista första sista föregående nästa
Text 2964, 717 rader
Skriven 2009-05-16 20:00:20 av Amsat List (1:323/120.0)
Ärende: [keps]  orb09136.amsa
=============================
[keps]  orb09136.amsa

Return-Path: <keps-bounces@amsat.org>
X-Rcpt: craig.healy@chowda.com
X-UIDL: 1242516840.38690

SB KEPS @ AMSAT  $ORB09136.O
Orbital Elements  09136.OSCAR

HR AMSAT ORBITAL ELEMENTS FOR OSCAR SATELLITES
FROM WA5QGD FORT WORTH,TX May 16, 2009
Send Subscribe/unsubscribe to KEPS at 
http://www.amsat.org/mailman/listinfo/keps
BID: ORB09136.O
TO ALL RADIO AMATEURS BT

Satellite: SO-33
Catalog number: 25509
Epoch time:      09136.39314056
Element set:     454
Inclination:      031.4317 deg
RA of node:       232.2658 deg
Eccentricity:    0.0353968
Arg of perigee:   060.5234 deg
Mean anomaly:     303.0224 deg
Mean motion:   14.28252157 rev/day
Decay rate:       1.37e-06 rev/day^2
Epoch rev:           55128
Checksum:              284

Satellite: RS-22
Catalog number: 27939
Epoch time:      09135.85538180
Element set:     790
Inclination:      097.9499 deg
RA of node:       011.8945 deg
Eccentricity:    0.0012686
Arg of perigee:   232.0309 deg
Mean anomaly:     127.9753 deg
Mean motion:   14.63315793 rev/day
Decay rate:       1.13e-06 rev/day^2
Epoch rev:           30084
Checksum:              329

Satellite: AO-07
Catalog number: 07530
Epoch time:      09135.84696799
Element set:    0479
Inclination:      101.4276 deg
RA of node:       161.7091 deg
Eccentricity:    0.0011701
Arg of perigee:   333.5230 deg
Mean anomaly:     026.5236 deg
Mean motion:   12.53575707 rev/day
Decay rate:       -2.7e-07 rev/day^2
Epoch rev:           57866
Checksum:              312

Satellite: FO-29
Catalog number: 24278
Epoch time:      09135.83444780
Element set:      41
Inclination:      098.5587 deg
RA of node:       014.2142 deg
Eccentricity:    0.0351363
Arg of perigee:   074.2768 deg
Mean anomaly:     289.6831 deg
Mean motion:   13.52943796 rev/day
Decay rate:        3.3e-07 rev/day^2
Epoch rev:           62937
Checksum:              336

Satellite: VO-52
Catalog number: 28650
Epoch time:      09135.76704626
Element set:     225
Inclination:      097.7432 deg
RA of node:       198.4170 deg
Eccentricity:    0.0028102
Arg of perigee:   133.6828 deg
Mean anomaly:     226.7051 deg
Mean motion:   14.81582348 rev/day
Decay rate:      -2.67e-06 rev/day^2
Epoch rev:           21784
Checksum:              314

/EX
SB KEPS @ AMSAT  $ORB09136.D
Orbital Elements  09136.MICROS

HR AMSAT ORBITAL ELEMENTS FOR THE MICROSATS
FROM WA5QGD FORT WORTH,TX May 16, 2009
Send Subscribe/unsubscribe to KEPS at 
http://www.amsat.org/mailman/listinfo/keps
BID: ORB09136.D
TO ALL RADIO AMATEURS BT

Satellite: CO-65
Catalog number: 32785
Epoch time:      09136.31327094
Element set:     366
Inclination:      097.9468 deg
RA of node:       200.5395 deg
Eccentricity:    0.0015864
Arg of perigee:   131.6896 deg
Mean anomaly:     228.5673 deg
Mean motion:   14.81480168 rev/day
Decay rate:       1.17e-06 rev/day^2
Epoch rev:            5672
Checksum:              337

Satellite: CP3
Catalog number: 31129
Epoch time:      09136.13155733
Element set:     931
Inclination:      097.9937 deg
RA of node:       190.7408 deg
Eccentricity:    0.0102983
Arg of perigee:   025.3189 deg
Mean anomaly:     335.3016 deg
Mean motion:   14.52129925 rev/day
Decay rate:        9.8e-07 rev/day^2
Epoch rev:           11023
Checksum:              298

Satellite: AO-51
Catalog number: 28375
Epoch time:      09136.08487887
Element set:     389
Inclination:      098.0537 deg
RA of node:       147.5612 deg
Eccentricity:    0.0082803
Arg of perigee:   222.5325 deg
Mean anomaly:     136.9433 deg
Mean motion:   14.40641446 rev/day
Decay rate:        6.0e-08 rev/day^2
Epoch rev:           25633
Checksum:              320

Satellite: GENESAT1
Catalog number: 29655
Epoch time:      09135.96626874
Element set:    0711
Inclination:      040.0254 deg
RA of node:       025.1170 deg
Eccentricity:    0.0002549
Arg of perigee:   269.7020 deg
Mean anomaly:     090.3505 deg
Mean motion:   15.64950256 rev/day
Decay rate:     1.2027e-04 rev/day^2
Epoch rev:           13742
Checksum:              281

Satellite: KKS-1
Catalog number: 33493
Epoch time:      09135.93214423
Element set:    0385
Inclination:      098.0545 deg
RA of node:       248.0055 deg
Eccentricity:    0.0019965
Arg of perigee:   350.0146 deg
Mean anomaly:     010.0664 deg
Mean motion:   14.80664741 rev/day
Decay rate:       2.87e-06 rev/day^2
Epoch rev:           01669
Checksum:              296

Satellite: AO-16
Catalog number: 20439
Epoch time:      09135.91887775
Element set:    0606
Inclination:      098.2761 deg
RA of node:       105.7939 deg
Eccentricity:    0.0009964
Arg of perigee:   268.3414 deg
Mean anomaly:     091.6627 deg
Mean motion:   14.31823561 rev/day
Decay rate:       -1.2e-07 rev/day^2
Epoch rev:           00853
Checksum:              326

Satellite: LO-19
Catalog number: 20442
Epoch time:      09135.91126962
Element set:    0526
Inclination:      098.2396 deg
RA of node:       113.1748 deg
Eccentricity:    0.0010912
Arg of perigee:   263.7981 deg
Mean anomaly:     096.1960 deg
Mean motion:   14.32059269 rev/day
Decay rate:       -5.9e-07 rev/day^2
Epoch rev:           00869
Checksum:              321

Satellite: CO-56
Catalog number: 28941
Epoch time:      09135.90902426
Element set:    0080
Inclination:      098.1365 deg
RA of node:       304.3868 deg
Eccentricity:    0.0094280
Arg of perigee:   253.4433 deg
Mean anomaly:     105.6539 deg
Mean motion:   15.80682491 rev/day
Decay rate:     5.0302e-04 rev/day^2
Epoch rev:           18214
Checksum:              311

